EW8542 Weather Reports


time (UTC)temp
F
wind
direction
speed
knots
gust
knots
rain 1hr
in
rain 24hr
in
rain mn
in
humidity
%
barometer
mb
20260505173705 56 80 1.7 2.6 0.00 0.00 0.00 63 1009.9
20260505173205 56 72 1.7 4.3 0.00 0.00 0.00 62 1009.9
20260505172705 56 80 2.6 2.6 0.00 0.00 0.00 62 1009.9
20260505172205 56 59 2.6 4.3 0.00 0.00 0.00 61 1009.9
20260505171704 56 100 2.6 6.1 0.00 0.00 0.00 61 1009.9
20260505171205 56 61 2.6 5.2 0.00 0.00 0.00 61 1010.0
20260505170205 57 81 3.5 8.7 0.00 0.00 0.00 58 1009.9
20260505165705 57 77 3.5 7.8 0.00 0.00 0.00 59 1009.9
20260505165205 57 77 2.6 7.8 0.00 0.00 0.00 58 1009.9
20260505164706 57 78 5.2 7.8 0.00 0.00 0.00 57 1009.9
20260505164205 57 70 4.3 7.0 0.00 0.00 0.00 56 1009.9
20260505163704 57 97 4.3 8.7 0.00 0.00 0.00 57 1009.9
20260505163205 58 81 5.2 10.4 0.00 0.00 0.00 56 1009.9
20260505162705 58 89 5.2 8.7 0.00 0.00 0.00 57 1009.9
20260505162205 58 93 4.3 11.3 0.00 0.00 0.00 56 1010.0
20260505161705 58 61 5.2 10.4 0.00 0.00 0.00 57 1009.9
20260505161205 58 88 5.2 10.4 0.00 0.00 0.00 56 1010.0
20260505160705 58 36 4.3 10.4 0.00 0.00 0.00 56 1009.9
20260505153205 58 56 3.5 8.7 0.00 0.00 0.00 50 1010.1
20260505152705 58 62 4.3 8.7 0.00 0.00 0.00 50 1010.2
20260505152205 59 47 4.3 10.4 0.00 0.00 0.00 51 1010.2
20260505151205 59 43 5.2 8.7 0.00 0.00 0.00 50 1010.1
20260505150205 60 59 5.2 7.8 0.00 0.00 0.00 50 1010.1
20260505124705 60 359 2.6 4.3 0.00 0.00 0.00 60 1010.5
20260505124205 60 347 2.6 7.0 0.00 0.00 0.00 59 1010.6
20260505123705 59 79 2.6 7.0 0.00 0.00 0.00 60 1010.7
20260505123205 59 7 1.7 7.8 0.00 0.00 0.00 59 1010.7
20260505122705 59 2 3.5 7.0 0.00 0.00 0.00 59 1010.7
20260505122205 59 338 2.6 2.6 0.00 0.00 0.00 58 1010.7
20260505121705 59 47 4.3 7.8 0.00 0.00 0.00 61 1010.8
20260505121205 58 38 3.5 7.8 0.00 0.00 0.00 62 1010.8
20260505120205 59 84 5.2 7.8 0.00 0.00 0.00 60 1010.8
20260505115705 59 64 2.6 5.2 0.00 0.00 0.00 60 1010.8
20260505114705 59 332 1.7 8.7 0.00 0.00 0.00 63 1010.7
20260505114205 58 19 1.7 4.3 0.00 0.00 0.00 60 1010.8
20260505113204 58 9 2.6 4.3 0.00 0.00 0.00 62 1010.8
20260505112205 57 70 1.7 4.3 0.00 0.00 0.00 62 1010.9
20260505111705 57 66 3.5 7.0 0.00 0.00 0.00 62 1010.9
20260505110705 58 268 1.7 4.3 0.00 0.00 0.00 62 1011.0
20260505110205 58 2 4.3 7.8 0.00 0.00 0.00 61 1011.0
20260505101705 57 286 0.9 2.6 0.00 0.00 0.00 64 1011.2
20260505101205 57 348 4.3 7.0 0.00 0.00 0.00 65 1011.3
20260505100706 56 310 0.0 4.3 0.00 0.00 0.00 69 1011.3
20260505100205 55 333 1.7 4.3 0.00 0.00 0.00 68 1011.4
20260505095705 55 335 1.7 4.3 0.00 0.00 0.00 67 1011.5
20260505094704 56 343 4.3 8.7 0.00 0.00 0.00 65 1011.6
20260505093705 56 27 4.3 7.8 0.00 0.00 0.00 68 1011.5
20260505093205 55 330 2.6 7.0 0.00 0.00 0.00 67 1011.5
20260505092705 56 333 2.6 6.1 0.00 0.00 0.00 67 1011.5
20260505092205 56 339 3.5 7.8 0.00 0.00 0.00 67 1011.6
20260505091705 55 29 1.7 5.2 0.00 0.00 0.00 70 1011.5
20260505091205 55 347 1.7 5.2 0.00 0.00 0.00 69 1011.6
20260505090706 55 357 1.7 4.3 0.00 0.00 0.00 68 1011.6
20260505090205 55 348 1.7 4.3 0.00 0.00 0.00 69 1011.6
20260505085705 56 336 4.3 8.7 0.00 0.00 0.00 67 1011.7
20260505085204 56 333 3.5 7.8 0.00 0.00 0.00 68 1011.6
20260505084205 57 324 2.6 7.0 0.00 0.00 0.00 68 1011.6
20260505083705 56 18 2.6 8.7 0.00 0.00 0.00 68 1011.6
20260505083205 56 346 2.6 7.8 0.00 0.00 0.00 68 1011.6
20260505082205 56 322 3.5 7.0 0.00 0.00 0.00 72 1011.7
20260505081704 55 334 1.7 5.2 0.00 0.00 0.00 72 1011.7
20260505080705 53 350 2.6 7.8 0.00 0.00 0.00 74 1011.7
20260505080205 53 41 2.6 7.8 0.00 0.00 0.00 74 1011.7
20260505075705 53 337 2.6 7.8 0.00 0.00 0.00 77 1011.7
20260505075205 53 338 2.6 7.8 0.00 0.00 0.00 74 1011.8
20260505074705 53 346 2.6 7.8 0.00 0.00 0.00 76 1011.7
20260505074205 53 333 3.5 8.7 0.00 0.00 0.00 76 1011.7
20260505073705 52 346 1.7 7.0 0.00 0.00 0.00 78 1011.8
20260505072205 52 16 4.3 7.8 0.00 0.00 0.00 77 1011.7
20260505071705 52 3 2.6 5.2 0.00 0.00 0.00 78 1011.8
20260505071204 52 10 4.3 7.0 0.00 0.00 0.00 79 1011.8
20260505070705 51 13 1.7 6.1 0.00 0.00 0.00 80 1011.9
20260505070204 51 29 2.6 5.2 0.00 0.00 0.00 81 1011.9
20260505065705 51 27 3.5 7.0 0.00 0.00 0.00 81 1011.8
20260505065204 51 31 2.6 5.2 0.00 0.00 0.00 82 1011.8
20260505064705 50 8 0.9 4.3 0.00 0.00 0.00 85 1011.9
20260505064205 50 329 1.7 5.2 0.00 0.00 0.00 85 1011.9
20260505063206 49 21 3.5 7.8 0.00 0.00 0.00 86 1012.0
20260505062705 49 346 1.7 7.0 0.00 0.00 0.00 87 1011.9
20260505062205 48 330 2.6 7.0 0.00 0.00 0.00 88 1012.0
20260505061705 48 335 2.6 7.0 0.00 0.00 0.00 88 1012.0
20260505061205 47 39 1.7 4.3 0.00 0.00 0.00 90 1012.0
20260505060705 47 10 0.9 2.6 0.00 0.00 0.00 91 1011.9
20260505060204 46 348 2.6 5.2 0.00 0.00 0.00 91 1011.9
20260505055205 46 11 1.7 2.6 0.00 0.00 0.00 93 1011.9
20260505054705 45 14 2.6 4.3 0.00 0.00 0.00 94 1011.9
20260505054205 45 11 1.7 2.6 0.00 0.00 0.00 94 1011.9
20260505053704 44 348 1.7 4.3 0.00 0.00 0.00 95 1011.9
20260505052705 44 0 1.7 2.6 0.00 0.00 0.00 96 1011.9
20260505052205 43 16 1.7 4.3 0.00 0.00 0.00 96 1011.9
20260505051705 43 311 0.9 2.6 0.00 0.00 0.00 96 1011.8
20260505051205 43 304 0.9 1.7 0.00 0.00 0.00 96 1011.8
20260505050705 42 303 0.0 1.7 0.00 0.00 0.00 96 1011.8
20260505050205 42 303 0.9 1.7 0.00 0.00 0.00 97 1011.7
20260505041705 37 302 0.9 0.9 0.00 0.00 0.00 95 1011.8
20260505041205 37 302 0.9 1.7 0.00 0.00 0.00 95 1011.7
20260505040704 37 302 0.0 0.0 0.00 0.00 0.00 95 1011.7
20260505040205 37 302 0.0 0.0 0.00 0.00 0.00 95 1011.8
20260505035705 37 302 0.0 0.0 0.00 0.00 0.00 94 1011.7
20260505035205 37 302 0.0 0.0 0.00 0.00 0.00 94 1011.7
20260505034705 37 302 0.0 0.9 0.00 0.00 0.00 95 1011.7
20260505033705 37 302 0.0 0.0 0.00 0.00 0.00 94 1011.7
20260505033205 37 302 0.0 0.0 0.00 0.00 0.00 94 1011.7
20260505032705 37 302 0.0 0.9 0.00 0.00 0.00 94 1011.7
20260505032205 38 302 0.0 0.0 0.00 0.00 0.00 95 1011.7
20260505031705 38 302 0.0 0.9 0.00 0.00 0.00 95 1011.7
20260505031205 38 302 0.0 1.7 0.00 0.00 0.00 95 1011.7
20260505030704 38 302 0.0 0.9 0.00 0.00 0.00 95 1011.7
20260505030205 38 302 0.0 0.9 0.00 0.00 0.00 94 1011.7
20260505025705 38 302 0.0 1.7 0.00 0.00 0.00 94 1011.8
20260505025205 38 302 0.0 1.7 0.00 0.00 0.00 94 1011.8
20260505024705 38 302 0.0 0.9 0.00 0.00 0.00 94 1011.8
20260505024205 38 302 0.0 0.9 0.00 0.00 0.00 95 1011.8
20260505023705 38 302 0.0 1.7 0.00 0.00 0.00 95 1011.8
20260505023205 38 301 0.0 0.0 0.00 0.00 0.00 95 1011.8
20260505022705 38 301 0.0 1.7 0.00 0.00 0.00 94 1011.8
20260505022205 38 265 0.0 2.6 0.00 0.00 0.00 94 1011.8
20260505021205 38 262 0.0 0.0 0.00 0.00 0.00 94 1011.8
20260505020704 38 255 0.0 0.0 0.00 0.00 0.00 94 1011.9
20260505020205 38 255 0.0 0.0 0.00 0.00 0.00 94 1012.0
20260505015705 38 255 0.0 0.0 0.00 0.00 0.00 94 1012.0
20260505015205 38 255 0.0 0.0 0.00 0.00 0.00 94 1012.1
20260505014705 38 255 0.0 0.0 0.00 0.00 0.00 94 1012.1
20260505013704 38 255 0.0 0.0 0.00 0.00 0.00 94 1012.1
20260505013205 39 255 0.0 0.0 0.00 0.00 0.00 94 1012.2
20260505012705 39 255 0.0 0.0 0.00 0.00 0.00 94 1012.2
20260505012205 39 255 0.0 0.0 0.00 0.00 0.00 94 1012.2
20260505011704 39 255 0.0 0.0 0.00 0.00 0.00 94 1012.3
20260505011205 39 255 0.0 0.0 0.00 0.00 0.00 94 1012.3
20260505010705 39 255 0.0 0.0 0.00 0.00 0.00 94 1012.3
20260505005205 39 255 0.0 0.0 0.00 0.00 0.00 94 1012.4
20260505004705 39 255 0.0 0.0 0.00 0.00 0.00 94 1012.3
20260505004205 39 255 0.0 0.0 0.00 0.00 0.00 93 1012.3
20260505003705 39 255 0.0 0.0 0.00 0.00 0.00 93 1012.3
20260505003205 39 255 0.0 0.0 0.00 0.00 0.00 94 1012.4
20260505002705 39 255 0.0 0.0 0.00 0.00 0.00 93 1012.4
20260505002205 39 255 0.0 0.0 0.00 0.00 0.00 93 1012.4
20260505001205 39 254 0.0 0.0 0.00 0.00 0.00 93 1012.5
20260505000705 40 254 0.0 0.0 0.00 0.00 0.00 93 1012.5
20260504235205 40 254 0.0 0.0 0.00 0.00 0.00 93 1012.5
20260504234705 40 254 0.0 0.0 0.00 0.00 0.00 93 1012.5
20260504234205 40 254 0.0 0.0 0.00 0.00 0.00 93 1012.6
20260504233205 40 254 0.0 0.0 0.00 0.00 0.00 93 1012.6
20260504232704 41 254 0.0 0.0 0.00 0.00 0.00 93 1012.6
20260504232205 41 254 0.0 0.0 0.00 0.00 0.00 93 1012.6
20260504231205 40 254 0.0 0.0 0.00 0.00 0.00 92 1012.6
20260504230705 41 254 0.0 0.0 0.00 0.00 0.00 92 1012.6
20260504230205 41 254 0.0 0.0 0.00 0.00 0.00 92 1012.6
20260504225704 41 254 0.9 1.7 0.00 0.00 0.00 92 1012.7
20260504225205 41 254 0.0 0.9 0.00 0.00 0.00 92 1012.7
20260504224704 41 254 0.0 1.7 0.00 0.00 0.00 92 1012.7
20260504223705 41 254 0.0 1.7 0.00 0.00 0.00 92 1012.7
20260504223205 41 254 0.0 0.9 0.00 0.00 0.00 92 1012.6
20260504222705 41 254 0.9 1.7 0.00 0.00 0.00 91 1012.7
20260504222205 41 254 0.9 1.7 0.00 0.00 0.00 92 1012.7
20260504221704 42 254 0.0 0.9 0.00 0.00 0.00 91 1012.7
20260504220706 42 254 0.9 0.9 0.00 0.00 0.00 91 1012.7
20260504220205 42 254 0.9 1.7 0.00 0.00 0.00 91 1012.8
20260504215704 42 254 0.9 1.7 0.00 0.00 0.00 91 1012.8
20260504215205 42 254 0.9 1.7 0.00 0.00 0.00 91 1012.8
20260504214705 42 254 0.0 0.9 0.00 0.00 0.00 91 1012.8
20260504213205 43 254 0.9 2.6 0.00 0.00 0.00 90 1012.8
20260504212705 43 253 0.9 2.6 0.00 0.00 0.00 90 1012.8
20260504212205 43 253 0.0 1.7 0.00 0.00 0.00 90 1012.8
20260504211705 43 253 0.9 2.6 0.00 0.00 0.00 90 1012.8
20260504211204 43 253 0.9 2.6 0.00 0.00 0.00 90 1012.9
20260504210705 43 254 0.9 2.6 0.00 0.00 0.00 90 1012.8
20260504210205 43 254 0.9 2.6 0.00 0.00 0.00 89 1012.8
20260504205705 43 254 0.0 1.7 0.00 0.00 0.00 89 1012.8
20260504205205 44 254 0.9 1.7 0.00 0.01 0.00 89 1012.8
20260504204705 44 252 0.9 2.6 0.00 0.01 0.00 88 1012.8
20260504204205 44 252 0.9 2.6 0.00 0.01 0.00 88 1012.8
20260504203206 44 252 0.0 2.6 0.00 0.02 0.00 88 1012.7
20260504202705 44 252 0.9 2.6 0.00 0.02 0.00 87 1012.8
20260504202205 45 252 0.9 2.6 0.00 0.04 0.00 87 1012.8
20260504201705 45 260 1.7 2.6 0.00 0.06 0.00 87 1012.8
20260504201205 45 260 1.7 2.6 0.00 0.07 0.00 87 1012.7
20260504200705 45 259 1.7 2.6 0.00 0.07 0.00 86 1012.8
20260504200205 45 262 1.7 2.6 0.00 0.08 0.00 86 1012.8
20260504195705 46 263 0.9 1.7 0.00 0.08 0.00 85 1012.7
20260504195204 46 265 0.9 2.6 0.00 0.08 0.00 85 1012.6
20260504194705 46 270 0.9 5.2 0.00 0.09 0.00 84 1012.7
20260504194205 46 269 1.7 2.6 0.00 0.09 0.00 84 1012.7
20260504193705 46 270 0.9 5.2 0.00 0.09 0.00 84 1012.6
20260504193205 47 264 1.7 2.6 0.00 0.09 0.00 83 1012.7
20260504192704 47 277 0.9 2.6 0.00 0.10 0.00 83 1012.7
20260504192205 47 279 0.9 2.6 0.00 0.10 0.00 83 1012.6
20260504190705 48 270 0.9 1.7 0.00 0.11 0.00 81 1012.4
20260504190205 48 277 0.9 2.6 0.00 0.12 0.00 80 1012.4
20260504185704 48 286 1.7 5.2 0.00 0.12 0.00 79 1012.4
20260504185205 49 273 1.7 6.1 0.00 0.12 0.00 79 1012.5
20260504184205 49 268 2.6 7.8 0.00 0.13 0.00 78 1012.5
20260504183705 49 289 1.7 2.6 0.00 0.13 0.00 78 1012.5
20260504182205 50 282 1.7 6.1 0.00 0.18 0.00 76 1012.3
20260504181705 50 262 1.7 6.1 0.00 0.19 0.00 75 1012.3
20260504181205 51 253 2.6 8.7 0.00 0.21 0.00 74 1012.4
20260504180705 51 251 2.6 7.0 0.00 0.24 0.00 74 1012.3
20260504180205 51 278 4.3 8.7 0.00 0.27 0.00 74 1012.3
20260504175704 52 257 0.9 4.3 0.00 0.30 0.00 74 1012.2
20260504175205 52 264 3.5 8.7 0.00 0.32 0.00 73 1012.2
20260504174705 52 288 1.7 2.6 0.00 0.34 0.00 73 1012.2
20260504174205 52 281 2.6 7.0 0.00 0.35 0.00 72 1012.1